TimeEST,TemperatureF,Dew PointF,Humidity,Sea Level PressureIn,VisibilityMPH,Wind Direction,Wind SpeedMPH,Gust SpeedMPH,PrecipitationIn,Events,Conditions,WindDirDegrees,DateUTC
12:53 AM,71.6,55.4,57,30.17,10.0,NE,4.6,-,N/A,,Overcast,50,2013-01-19 05:53:00
1:53 AM,71.1,55.9,59,30.16,10.0,ENE,6.9,-,N/A,,Overcast,70,2013-01-19 06:53:00
2:53 AM,71.1,57.0,61,30.15,10.0,NE,3.5,-,N/A,,Overcast,50,2013-01-19 07:53:00
3:53 AM,71.1,57.0,61,30.15,10.0,East,6.9,-,N/A,,Overcast,90,2013-01-19 08:53:00
4:53 AM,70.0,59.0,68,30.14,10.0,Calm,Calm,-,N/A,,Overcast,0,2013-01-19 09:53:00
5:53 AM,68.0,61.0,78,30.15,10.0,WNW,4.6,-,0.00,,Overcast,290,2013-01-19 10:53:00
6:53 AM,64.9,61.0,87,30.17,10.0,WSW,8.1,-,0.00,Rain,Light Rain,240,2013-01-19 11:53:00
7:53 AM,64.0,61.0,90,30.19,10.0,West,8.1,-,0.02,Rain,Light Rain,260,2013-01-19 12:53:00
8:09 AM,62.6,60.8,94,30.19,10.0,WSW,6.9,-,0.01,Rain,Light Rain,250,2013-01-19 13:09:00
8:21 AM,62.6,60.8,94,30.20,3.0,WSW,6.9,-,0.03,Rain,Rain,250,2013-01-19 13:21:00
8:53 AM,63.0,61.0,93,30.22,3.0,WSW,6.9,-,0.13,Rain,Rain,250,2013-01-19 13:53:00
9:53 AM,64.0,62.1,93,30.23,2.0,West,5.8,-,0.17,Rain,Light Rain,280,2013-01-19 14:53:00
10:00 AM,64.4,62.6,94,30.22,10.0,West,5.8,-,0.01,Rain,Light Rain,280,2013-01-19 15:00:00
10:05 AM,64.4,62.6,94,30.22,2.0,West,6.9,-,0.03,Rain,Rain,280,2013-01-19 15:05:00
10:53 AM,64.9,64.0,97,30.23,2.0,NNW,3.5,-,0.15,Rain,Light Rain,330,2013-01-19 15:53:00
11:53 AM,66.9,64.9,93,30.20,3.0,North,3.5,-,0.03,Rain,Light Rain,10,2013-01-19 16:53:00
12:53 PM,69.1,66.0,90,30.17,10.0,NNE,5.8,-,0.04,,Overcast,30,2013-01-19 17:53:00
1:00 PM,69.8,66.2,88,30.16,5.0,NE,5.8,-,N/A,,Overcast,40,2013-01-19 18:00:00
1:53 PM,69.1,66.0,90,30.14,5.0,NE,5.8,-,N/A,,Overcast,40,2013-01-19 18:53:00
2:00 PM,69.8,66.2,88,30.12,10.0,North,5.8,-,N/A,,Overcast,10,2013-01-19 19:00:00
2:53 PM,71.1,66.0,84,30.12,10.0,NNE,4.6,-,N/A,,Overcast,20,2013-01-19 19:53:00
3:53 PM,71.1,66.0,84,30.12,10.0,NNW,4.6,-,N/A,,Overcast,340,2013-01-19 20:53:00
4:00 PM,71.6,66.2,83,30.10,10.0,North,3.5,-,N/A,,Overcast,350,2013-01-19 21:00:00
4:15 PM,71.6,64.4,78,30.10,10.0,North,5.8,-,N/A,,Overcast,350,2013-01-19 21:15:00
4:38 PM,71.6,64.4,78,30.11,10.0,Calm,Calm,-,N/A,,Overcast,0,2013-01-19 21:38:00
4:53 PM,71.1,66.0,84,30.12,10.0,Calm,Calm,-,N/A,,Mostly Cloudy,0,2013-01-19 21:53:00
5:53 PM,70.0,66.0,87,30.12,10.0,Calm,Calm,-,N/A,,Overcast,0,2013-01-19 22:53:00
6:53 PM,70.0,64.9,84,30.13,10.0,NNW,3.5,-,N/A,,Overcast,340,2013-01-19 23:53:00
7:24 PM,69.8,64.4,83,30.13,10.0,NNW,3.5,-,N/A,,Overcast,330,2013-01-20 00:24:00
7:53 PM,69.1,66.0,90,30.14,10.0,Calm,Calm,-,N/A,,Overcast,0,2013-01-20 00:53:00
8:53 PM,69.1,66.0,90,30.15,10.0,Calm,Calm,-,N/A,,Clear,0,2013-01-20 01:53:00
9:53 PM,68.0,66.0,93,30.14,10.0,NW,3.5,-,N/A,,Partly Cloudy,320,2013-01-20 02:53:00
10:43 PM,66.2,64.4,94,30.12,10.0,NNW,4.6,-,N/A,,Mostly Cloudy,330,2013-01-20 03:43:00
10:53 PM,66.9,64.9,93,30.12,10.0,NNW,4.6,-,N/A,,Mostly Cloudy,340,2013-01-20 03:53:00
11:53 PM,66.0,64.0,93,30.12,10.0,WNW,3.5,-,N/A,,Clear,290,2013-01-20 04:53:00